Regional Weather Roundup
Issued by NWS

Home | Current Version | Previous Version | Text Only | Print | Product List | Glossary Off
Versions: 1 2 3 4 5 6 7 8 9 10 11 12 13 14 15 16 17 18 19 20 21 22 23 24 25 26 27 28 29 30 31 32 33 34 35 36 37 38 39 40 41 42 43 44 45 46 47 48 49 50

000
ASUS43 KDMX 271604
RWRIA

WEATHER ROUNDUP FOR IOWA
NATIONAL WEATHER SERVICE DES MOINES IA
  ISSUED BY NWS QUAD CITIES IA IL
1000 AM CST TUE JAN 27 2015

NOTE: "FAIR" INDICATES FEW OR NO CLOUDS BELOW 12,000 FEET WITH NO
SIGNIFICANT WEATHER AND/OR OBSTRUCTIONS TO VISIBILITY.

* - THESE STATIONS ARE NOT NWS STATIONS...THUS NOT UNDER NWS
QUALITY CONTROL.  THEY ALSO DO NOT REPORT WEATHER SUCH
AS PRECIPITATION OR FOG.

IAZ001>003-012>014-020>022-031>034-043>046-271700-
   NORTHWEST IOWA

CITY           SKY/WX    TMP DP  RH WIND       PRES   REMARKS
CARROLL *      SUNNY     34  32  93 E8        30.15R WCI  27
CHEROKEE *     SUNNY     34  33  94 E6        30.14R WCI  29
DENNISON *     SUNNY     36  36 100 E10       30.12S WCI  28
LE MARS *      FOG       32  32 100 VRB6      30.14S VSB 3/4 WCI  26
ORANGE CITY *  FOG       32  30  93 SE3       30.12R VSB 1/4
SHELDON *      FOG       30  30 100 SE13      30.11S VSB<1/4 WCI  20
SIOUX CITY     SUNNY     34  33  96 SE9       30.13S WCI  27
SPENCER        CLOUDY    31  29  92 E7        30.13F FOG     WCI  24
STORM LAKE *   SUNNY     34  32  93 E12       30.13S WCI  25
$$

IAZ055>058-069>071-079>083-090>094-271700-
   SOUTHWEST IOWA

CITY           SKY/WX    TMP DP  RH WIND       PRES   REMARKS
ATLANTIC *     SUNNY     36  34  93 CALM      30.15R
AUDUBON *      SUNNY     37  34  87 E6        30.16R WCI  33
CLARINDA *     SUNNY     36  34  93 CALM      30.18R
COUNCIL BLFS * SUNNY     37  37 100 SE9       30.13R WCI  31
CRESTON *      SUNNY     36  34  93 E7        30.16S WCI  30
HARLAN *       SUNNY     34  34 100 SE5       30.18R WCI  30
LAMONI         SUNNY     38  32  79 NE6       30.16R WCI  33
RED OAK *      SUNNY     36  34  93 E5        30.16S WCI  32
SHENANDOAH *   SUNNY     39  36  87 E6        30.17R WCI  35
$$

IAZ047>049-059>061-072>074-084-271700-
   CENTRAL IOWA

CITY           SKY/WX    TMP DP  RH WIND       PRES   REMARKS
AMES           SUNNY     37  30  75 NE6       30.16R WCI  32
ANKENY *       SUNNY     36  32  87 E6        30.17R WCI  31
BOONE *        SUNNY     36  34  93 NE6       30.14S WCI  31
CHARITON *     SUNNY     37  32  81 NE6       30.17R WCI  33
DES MOINES     MOSUNNY   39  30  70 E5        30.17R WCI  36
GRINNELL *     PTSUNNY   34  30  87 NE6       30.15S WCI  29
KNOXVILLE *    SUNNY     37  30  75 NE6       30.16R WCI  33
MARSHALLTOWN   SUNNY     37  31  78 NE5       30.15R WCI  33
PELLA *        SUNNY     37  31  81 NE3       30.18R
PERRY *          N/A     35  33  92 CALM      30.16S
$$

IAZ004>006-015-016-023>025-035-036-271700-
   NORTH CENTRAL IOWA

CITY           SKY/WX    TMP DP  RH WIND       PRES   REMARKS
ALGONA *       SUNNY     34  32  93 CALM      30.15S
CLARION *      SUNNY     34  34 100 E5        30.15R WCI  30
ESTHERVILLE    SUNNY     31  30  96 CALM      30.13S
FORT DODGE *   SUNNY     34  30  86 E3        30.16S
MASON CITY     CLOUDY    34  29  82 E5        30.16R WCI  30
WEBSTER CITY * SUNNY     36  36 100 E5        30.14R WCI  32
IOWA FALLS *   FAIR      35  29  79 NE6       30.16R WCI  30
$$

IAZ007>011-017>019-026>030-037>042-050>054-066-271700-
   NORTHEAST IOWA

CITY           SKY/WX    TMP DP  RH WIND       PRES   REMARKS
CEDAR RAPIDS   CLOUDY    32  28  85 N8        30.15R WCI  25
CHARLES CITY * CLOUDY    34  30  86 NE7       30.15R WCI  28
CLINTON *      CLOUDY    27  21  80 NE12      30.19R WCI  16
DECORAH *      CLOUDY    28  25  86 NE7       30.15R WCI  21
DUBUQUE        CLOUDY    27  22  81 NE8       30.15R WCI  19
MONTICELLO *   CLOUDY    30  27  86 NE9       30.16R WCI  22
OELWEIN *      CLOUDY    30  27  86 NE10      30.16R WCI  21
WATERLOO       CLOUDY    33  30  88 E9        30.15R WCI  25
$$

IAZ064-065-067-068-078-271700-
   EAST CENTRAL IOWA

CITY           SKY/WX    TMP DP  RH WIND       PRES   REMARKS
DAVENPORT      CLOUDY    28  22  78 NE12      30.18R WCI  18
IOWA CITY      CLOUDY    33  27  78 NE8       30.19R WCI  26
MT. PLEASANT * CLOUDY    34  31  88 NE10      30.17R WCI  26
MUSCATINE *    CLOUDY    34  27  75 NE9       30.18R WCI  26
QUAD CITIES    CLOUDY    30  23  75 NE10      30.17R WCI  21
$$

IAZ062-063-075>077-085>089-095>099-271700-
   SOUTHEAST IOWA

CITY           SKY/WX    TMP DP  RH WIND       PRES   REMARKS
BURLINGTON     CLOUDY    34  30  85 NE14      30.16R WCI  25
FAIRFIELD *    MOSUNNY   36  30  80 NE7       30.17R WCI  30
FORT MADISON * MOSUNNY   37  34  87 N9        30.16R WCI  31
KEOKUK *       MOSUNNY   39  32  75 NE9G15    30.16R WCI  33
OTTUMWA        SUNNY     36  31  82 NE9       30.15R WCI  29
WASHINGTON *   CLOUDY    34  32  93 NE8       30.17R WCI  27
$$

ABBREVIATIONS USED IN REMARKS
   TC - TEMPERATURES IN CELSIUS
  WCI - WIND CHILL INDEX
   HX - HEAT INDEX
  VSB - VISIBILITY
$$



USA.gov is the U.S. government's official web portal to all federal, state and local government web resources and services.